AWQ365 WIII-VCBI

Flight info

Callsign AWQ365
Flight time N/A
Altitude 34000
Route RIMTI M766 UDIVO/N0455F360 M766 PEBSA Z610 MTL DCT RUPOK RUPOK1A
Aircraft A320/M-SDE3FGHIRWY/LB1

Departure

Time N/A
Airport Soekarno-Hatta International Airport (WIII)

Arrival

Time 2026-05-01 08:17
Airport Bandaranaike International Colombo Airport (VCBI)
Time Latitude Longitude Altitude Speed Heading
2026-05-01 07:23 4.70101 84.94909 35916 ft 459 kts 296°
2026-05-01 07:24 4.74350 84.86311 35912 ft 458 kts 296°
2026-05-01 07:24 4.77171 84.80576 35914 ft 458 kts 296°
2026-05-01 07:25 4.79973 84.74875 35918 ft 458 kts 296°
2026-05-01 07:25 4.82804 84.69151 35917 ft 458 kts 296°
2026-05-01 07:26 4.85626 84.63420 35916 ft 458 kts 296°
2026-05-01 07:26 4.88440 84.57686 35914 ft 458 kts 296°
2026-05-01 07:27 4.91265 84.51956 35915 ft 458 kts 296°
2026-05-01 07:27 4.94090 84.46225 35916 ft 458 kts 296°
2026-05-01 07:28 4.96909 84.40495 35915 ft 458 kts 296°
2026-05-01 07:28 4.99728 84.34768 35919 ft 458 kts 296°
2026-05-01 07:29 5.02543 84.29038 35920 ft 458 kts 296°
2026-05-01 07:29 5.05364 84.23306 35916 ft 458 kts 296°
2026-05-01 07:30 5.08178 84.17572 35919 ft 458 kts 296°
2026-05-01 07:30 5.10974 84.11884 35920 ft 457 kts 296°
2026-05-01 07:31 5.13784 84.06155 35916 ft 458 kts 296°
2026-05-01 07:32 5.20272 83.92781 35923 ft 457 kts 295°
2026-05-01 07:33 5.24360 83.84124 35923 ft 457 kts 295°
2026-05-01 07:33 5.28455 83.75481 35917 ft 457 kts 295°
2026-05-01 07:34 5.32556 83.66836 35920 ft 457 kts 295°
2026-05-01 07:35 5.35299 83.61074 35917 ft 457 kts 295°
2026-05-01 07:35 5.38030 83.55307 35919 ft 457 kts 295°
2026-05-01 07:36 5.40757 83.49541 35916 ft 457 kts 295°
2026-05-01 07:36 5.43491 83.43780 35919 ft 457 kts 295°
2026-05-01 07:37 5.47595 83.35133 35918 ft 458 kts 295°
2026-05-01 07:37 5.50317 83.29363 35920 ft 457 kts 295°
2026-05-01 07:38 5.53048 83.23599 35917 ft 457 kts 295°
2026-05-01 07:39 5.57131 83.14983 35922 ft 457 kts 295°
2026-05-01 07:39 5.61222 83.06338 35914 ft 457 kts 295°
2026-05-01 07:40 5.63948 83.00580 35916 ft 456 kts 295°
2026-05-01 07:40 5.66672 82.94821 35916 ft 456 kts 295°
2026-05-01 07:41 5.69390 82.89059 35911 ft 456 kts 295°
2026-05-01 07:42 5.73460 82.80422 35910 ft 456 kts 295°
2026-05-01 07:42 5.76187 82.74667 35911 ft 456 kts 295°
2026-05-01 07:43 5.78914 82.68915 35909 ft 456 kts 295°
2026-05-01 07:43 5.82976 82.60321 35913 ft 456 kts 295°
2026-05-01 07:44 5.88396 82.48810 35904 ft 456 kts 295°
2026-05-01 07:45 5.91113 82.43061 35914 ft 455 kts 295°
2026-05-01 07:45 5.93824 82.37310 35915 ft 455 kts 295°
2026-05-01 07:46 5.96531 82.31561 35910 ft 454 kts 295°
2026-05-01 07:47 6.00558 82.23000 35904 ft 454 kts 295°
2026-05-01 07:47 6.03253 82.17272 35910 ft 453 kts 295°
2026-05-01 07:48 6.07285 82.08699 35911 ft 452 kts 295°
2026-05-01 07:48 6.09972 82.03001 35911 ft 451 kts 295°
2026-05-01 07:49 6.13616 81.94297 35903 ft 450 kts 282°
2026-05-01 07:50 6.14891 81.88128 35900 ft 451 kts 282°
2026-05-01 07:50 6.16831 81.78920 35896 ft 451 kts 282°
2026-05-01 07:51 6.18141 81.72745 35739 ft 452 kts 282°
2026-05-01 07:51 6.18796 81.69657 35499 ft 451 kts 282°
2026-05-01 07:52 6.20096 81.63502 35031 ft 450 kts 282°
2026-05-01 07:52 6.20739 81.60434 34711 ft 447 kts 281°
2026-05-01 07:52 6.21379 81.57381 34173 ft 445 kts 281°
2026-05-01 07:53 6.22648 81.51331 33073 ft 439 kts 281°
2026-05-01 07:53 6.23276 81.48338 32545 ft 436 kts 281°
2026-05-01 07:53 6.23898 81.45365 32036 ft 433 kts 281°
2026-05-01 07:53 6.24517 81.42413 31507 ft 431 kts 281°
2026-05-01 07:54 6.25747 81.36552 30512 ft 426 kts 281°
2026-05-01 07:55 6.27572 81.27878 29014 ft 417 kts 281°
2026-05-01 07:55 6.28757 81.22224 28102 ft 409 kts 281°
2026-05-01 07:56 6.30849 81.14019 26753 ft 401 kts 295°
2026-05-01 07:56 6.33750 81.09330 25862 ft 396 kts 303°
2026-05-01 07:57 6.35272 81.07028 25390 ft 394 kts 303°
2026-05-01 07:57 6.38281 81.02453 24450 ft 391 kts 303°
2026-05-01 07:58 6.41280 80.97893 23488 ft 391 kts 303°
2026-05-01 07:58 6.44271 80.93347 22453 ft 387 kts 303°
2026-05-01 07:59 6.47225 80.88865 21521 ft 382 kts 304°
2026-05-01 07:59 6.50145 80.84433 20611 ft 378 kts 304°
2026-05-01 08:00 6.55899 80.75674 18806 ft 373 kts 304°
2026-05-01 08:01 6.60155 80.69191 17477 ft 368 kts 304°
2026-05-01 08:01 6.61562 80.67056 17047 ft 365 kts 304°
2026-05-01 08:01 6.62962 80.64933 16659 ft 361 kts 304°
2026-05-01 08:02 6.65725 80.60734 15770 ft 358 kts 304°
2026-05-01 08:02 6.67086 80.58657 15382 ft 355 kts 304°
2026-05-01 08:03 6.69794 80.54527 14544 ft 352 kts 304°
2026-05-01 08:03 6.71131 80.52486 14176 ft 349 kts 304°
2026-05-01 08:03 6.73925 80.48536 13321 ft 344 kts 310°
2026-05-01 08:04 6.76886 80.44812 12464 ft 339 kts 310°
2026-05-01 08:04 6.79800 80.41139 11660 ft 333 kts 310°
2026-05-01 08:05 6.82649 80.37513 10838 ft 328 kts 309°
2026-05-01 08:05 6.84031 80.35704 10438 ft 320 kts 309°
2026-05-01 08:05 6.85345 80.33966 10080 ft 306 kts 308°
2026-05-01 08:06 6.87947 80.30802 9293 ft 280 kts 322°
2026-05-01 08:06 6.91362 80.29159 8727 ft 291 kts 351°
2026-05-01 08:07 6.95386 80.28791 8278 ft 290 kts 356°
2026-05-01 08:07 6.99396 80.28466 7813 ft 288 kts 356°
2026-05-01 08:08 7.01391 80.28304 7596 ft 287 kts 356°
2026-05-01 08:08 7.05364 80.27960 7133 ft 286 kts 350°
2026-05-01 08:09 7.08872 80.26198 6680 ft 285 kts 315°
2026-05-01 08:09 7.10141 80.24664 6448 ft 285 kts 307°
2026-05-01 08:09 7.11343 80.23084 6208 ft 284 kts 307°
2026-05-01 08:10 7.13746 80.19955 5771 ft 281 kts 307°
2026-05-01 08:10 7.16138 80.16846 5327 ft 279 kts 307°
2026-05-01 08:11 7.18494 80.13775 4822 ft 279 kts 307°
2026-05-01 08:11 7.20862 80.10688 4048 ft 275 kts 306°
2026-05-01 08:12 7.23174 80.07679 3210 ft 262 kts 306°
2026-05-01 08:12 7.24253 80.06276 2912 ft 246 kts 305°
2026-05-01 08:12 7.25777 80.03320 2591 ft 240 kts 279°
2026-05-01 08:13 7.26087 80.01671 2445 ft 236 kts 279°
2026-05-01 08:13 7.26389 80.00105 2249 ft 226 kts 279°
2026-05-01 08:13 7.26890 79.97072 1756 ft 213 kts 267°
2026-05-01 08:14 7.26626 79.95665 1562 ft 193 kts 247°
2026-05-01 08:14 7.26016 79.94596 1493 ft 162 kts 230°
2026-05-01 08:14 7.25276 79.93863 1421 ft 142 kts 217°
2026-05-01 08:14 7.24484 79.93258 1283 ft 144 kts 218°
2026-05-01 08:15 7.23688 79.92649 1112 ft 140 kts 219°
2026-05-01 08:15 7.22113 79.91441 760 ft 142 kts 220°
2026-05-01 08:15 7.21325 79.90837 583 ft 141 kts 217°
2026-05-01 08:16 7.20547 79.90241 384 ft 143 kts 219°
2026-05-01 08:16 7.19757 79.89638 208 ft 140 kts 218°
2026-05-01 08:16 7.18982 79.89040 51 ft 137 kts 217°
2026-05-01 08:16 7.18524 79.88690 39 ft 101 kts 218°
2026-05-01 08:17 7.18166 79.88414 39 ft 21 kts 218°
2026-05-01 08:17 7.18089 79.88356 39 ft 21 kts 217°
2026-05-01 08:17 7.17952 79.88248 40 ft 29 kts 215°
2026-05-01 08:17 7.17862 79.88241 41 ft 7 kts 126°
2026-05-01 08:18 7.17833 79.88279 40 ft 9 kts 128°
2026-05-01 08:18 7.17693 79.88279 39 ft 13 kts 217°
2026-05-01 08:19 7.17558 79.88356 38 ft 12 kts 127°
2026-05-01 08:19 7.17515 79.88415 38 ft 6 kts 128°
2026-05-01 08:19 7.17492 79.88444 38 ft 5 kts 127°
2026-05-01 08:19 7.17487 79.88474 38 ft 6 kts 70°
2026-05-01 08:20 7.17529 79.88507 38 ft 8 kts 37°
2026-05-01 08:20 7.17541 79.88515 38 ft 0 kts 37°
2026-05-01 08:21 7.17540 79.88515 38 ft 0 kts 37°